Regional Weather Roundup
Issued by NWS

Home | Current Version | Previous Version | Graphics & Text | Print | Product List | Glossary On
Versions: 1 2 3 4 5 6 7 8 9 10 11 12 13 14 15 16 17 18 19 20 21 22 23 24 25 26
000
ASUS45 KBOI 270610
RWRID

IDAHO REGIONAL WEATHER ROUNDUP
NATIONAL WEATHER SERVICE BOISE ID
1200 AM MDT FRI MAY 27 2016

NOTE: "FAIR" INDICATES FEW OR NO CLOUDS BELOW 12000 FEET
WITH NO SIGNIFICANT WEATHER AND/OR OBSTRUCTIONS TO VISIBILITY

IDZ012-014-270700-
SOUTHWEST IDAHO


CITY           SKY/WX    TMP DP  RH WIND       PRES   REMARKS
BOISE          PTCLDY    60  38  43 SE5       29.90S
CALDWELL       PTCLDY    58  44  60 W9        29.90R
MOUNTAIN HOME  PTCLDY    56  47  71 SE6       29.90F
$$

IDZ016-017-270700-
SOUTHCENTRAL IDAHO


CITY           SKY/WX    TMP DP  RH WIND       PRES   REMARKS
BURLEY         CLEAR     52  39  61 SW8       29.94S
JEROME         PTCLDY    54  40  59 S6        29.95S
TWIN FALLS     PTCLDY    51  40  65 S13       29.95F
$$

IDZ019>023-270700-
SOUTHEAST IDAHO


CITY           SKY/WX    TMP DP  RH WIND       PRES   REMARKS
IDAHO FALLS    CLEAR     51  41  68 SW6       29.93F
POCATELLO      CLEAR     53  38  56 SW12      29.95S
REXBURG        CLOUDY    52  41  66 E10       29.94F
$$

IDZ006-010-011-018-031-032-270700-
CENTRAL IDAHO MOUNTAINS


CITY           SKY/WX    TMP DP  RH WIND       PRES   REMARKS
MCCALL         PTCLDY    46  37  71 NE5       29.97R
HAILEY         CLEAR     45  41  87 NW10      29.99F
STANLEY          N/A     38  31  76 S5        30.03S WCI  34
SALMON         CLOUDY    57  39  51 NW3       29.91S
CHALLIS        CLOUDY    52  39  61 NE3       29.96S
$$

IDZ002-004-006-007-026-270700-
NORTHERN IDAHO


CITY           SKY/WX    TMP DP  RH WIND       PRES   REMARKS
LEWISTON       PTCLDY    56  42  59 CALM      29.94S
LOWELL           N/A     54  52  93 CALM      29.98S
COEUR D`ALENE  PTCLDY    55  43  62 SE8       29.90S
MULLAN PASS    MOCLDY    40  38  93 VRB3      29.99F
$$




USA.gov is the U.S. government's official web portal to all federal, state and local government web resources and services.